sat.trackr.live / text

‹ back to catalog

KUIPER-00148

NORAD 65769 · 2025-217H

PAYLOAD ACTIVE UNKNOWN

§ Identity

Operator
Country
US
Launch date
2025-09-25
Launch site
AFETR
Launch vehicle
Mass (kg)
RCS (m²)

External: N2YO · Heavens-Above · Gunter

§ Orbital elements

Epoch: 2026-09-20T23:13:00.592608Z

Period
97.30 min
Inclination
51.9034°
Eccentricity
0.0000682
Mean motion
14.79937892 rev/d
Perigee alt
629.0 km
Apogee alt
630.0 km
Semi-major
7,007.7 km
B*
2.6088e-4
RAAN
239.6109°
Arg perigee
75.4520°
Mean anomaly
284.6518°
Rev number
5,407

§ Raw data

KUIPER-001481 65769U 25217H   26263.96736797  .00001768  00000+0  26088-3 0  99912 65769  51.9034 239.6109 0000682  75.4520 284.6518 14.79937892 54075

JSON: /api/v1/satellites/65769 · /tle

For live sub-satellite position, see the globe view (requires WebGL).

§ Visibility from observer

Set your observer location to see the next 7 days of passes ≥ 10°. The values pass through the URL so the page stays shareable.

No JS? Fill the form by hand. The geolocation button needs JavaScript.